Location: Rancho Del Sol Observatory
(38.7214°N, 120.6350°W)
Time: 20:00:39
(UTC-08:00)

Courier 1B - Visible Passes

Search period start: 17 January 2020 00:00
Search period end: 27 January 2020 00:00
Orbit: 962 x 1209 km, 28.3° (Epoch: 17 January)

Date Brightness Start Highest point End Pass type
(mag) Time Alt. Az. Time Alt. Az. Time Alt. Az.
17 Jan 10.0 04:00:00 13° S 04:02:10 14° SSE 04:05:56 10° ESE visible
17 Jan 9.4 05:48:54 10° SW 05:55:28 30° SSE 06:02:04 10° ESE visible
18 Jan 9.5 04:56:59 15° SSW 05:01:43 26° SSE 05:07:56 10° ESE visible
19 Jan 9.5 04:06:56 21° SSE 04:08:01 21° SSE 04:13:37 10° ESE visible
19 Jan 9.1 05:54:35 10° SW 06:01:30 36° S 06:08:30 10° ESE visible
20 Jan 10.1 03:16:48 15° SE 03:16:48 15° SE 03:18:59 10° ESE visible
20 Jan 9.1 05:03:43 21° SSW 05:07:43 33° SSE 05:14:30 10° ESE visible
21 Jan 9.1 04:13:30 28° S 04:13:58 29° SSE 04:20:25 10° ESE visible
21 Jan 8.9 06:00:33 10° WSW 06:07:35 39° S 06:14:42 10° ESE visible
22 Jan 9.8 03:23:13 19° SE 03:23:13 19° SE 03:26:11 10° ESE visible
22 Jan 8.9 05:10:08 24° SW 05:13:46 37° S 05:20:49 10° ESE visible
23 Jan 8.8 04:19:48 34° S 04:20:00 35° S 04:26:51 10° ESE visible
23 Jan 8.9 06:06:44 10° WSW 06:13:40 37° S 06:20:44 10° ESE visible
24 Jan 9.6 03:29:27 23° SE 03:29:27 23° SE 03:32:47 10° ESE visible
24 Jan 8.8 05:16:20 25° SW 05:19:52 38° S 05:26:56 10° ESE visible
25 Jan 8.6 04:25:57 38° S 04:26:05 38° S 04:33:04 10° ESE visible
25 Jan 9.1 06:13:07 10° WSW 06:19:43 33° SSW 06:26:31 10° SE visible
26 Jan 9.4 03:35:33 25° SE 03:35:33 25° SE 03:39:07 10° ESE visible
26 Jan 8.8 05:22:27 24° SW 05:25:57 35° S 05:32:51 10° SE visible
